x

8454049 - Quonset Point, Ri (qptr1) Weather Station

12:30 - Fri 19th Sep 2014 All times are EDT. -4 hours from GMT.

  • Wind
    13mph, 16mph gusts
  • Sea Temp 68°f
  • Aire Temp 56°f
  • Sea Pressure 1027.9mb
  • 8454049 - Quonset Point, Ri
  • 8454049 - Quonset Point, Ri

More Historic Weather Station data

Upgrade to MSW Pro to gain access to the past 30 days of data for over 8000 Wavebouys and Weather Stations around the globe.

Join Pro

Comparision Forecast

View Surf forecast
   
vie 09/19 12:30 13 16 mph 1027.9mb 68f 56f
12:24 8 16 mph 1027.9mb 68f 55f
12:18 13 14 mph 1027.8mb 68f 56f
12:12 10 16 mph 1027.8mb 68f 56f
12:06 13 16 mph 1027.7mb 68f 55f
12:00 10 15 mph 1027.8mb 68f 55f
11:54 8 16 mph 1027.8mb 68f 55f
11:48 11 17 mph 1027.8mb 68f 55f
11:42 13 18 mph 1027.8mb 68f 55f
11:36 13 17 mph 1027.7mb 68f 55f
11:30 10 20 mph 1027.8mb 68f 55f
11:24 16 21 mph 1027.6mb 68f 55f
11:18 14 18 mph 1027.5mb 68f 55f
11:12 11 18 mph 1027.6mb 68f 54f
11:06 15 18 mph 1027.6mb 68f 54f
10:48 14 18 mph 1027.6mb 68f 54f
10:42 15 18 mph 1027.6mb 68f 54f
10:36 16 18 mph 1027.7mb 68f 54f
10:30 16 23 mph 1027.6mb 68f 54f
10:24 16 21 mph 1027.5mb 68f 54f
10:18 15 18 mph 1027.5mb 68f 54f
10:12 16 21 mph 1027.5mb 68f 53f
10:06 17 22 mph 1027.5mb 68f 53f
10:00 16 21 mph 1027.5mb 68f 53f
9:54 17 22 mph 1027.4mb 68f 53f
9:48 17 22 mph 1027.3mb 68f 53f
9:42 16 24 mph 1027.3mb 68f 53f
9:36 18 22 mph 1027.2mb 68f 53f
9:30 16 24 mph 1027.2mb 68f 53f
9:24 17 22 mph 1027.2mb 68f 53f
9:18 17 23 mph 1027.2mb 68f 53f
9:12 17 22 mph 1027.1mb 68f 53f
9:06 18 23 mph 1026.9mb 68f 53f
9:00 17 22 mph 1026.8mb 68f 53f
8:54 18 22 mph 1026.7mb 68f 53f
8:48 18 24 mph 1026.6mb 68f 53f
8:42 20 24 mph 1026.5mb 68f 52f
8:36 18 22 mph 1026.4mb 68f 53f
8:30 17 21 mph 1026.4mb 68f 53f
8:24 17 22 mph 1026.3mb 68f 53f
8:18 18 23 mph 1026.2mb 68f 53f
8:12 17 22 mph 1026.1mb 68f 53f
8:06 18 22 mph 1025.9mb 68f 53f
8:00 20 22 mph 1025.8mb 68f 53f
7:54 20 23 mph 1025.8mb 68f 52f
7:48 21 24 mph 1025.6mb 68f 52f
7:42 21 24 mph 1025.6mb 68f 52f
7:36 21 24 mph 1025.5mb 68f 53f
7:30 21 25 mph 1025.5mb 68f 53f
7:24 18 25 mph 1025.3mb 68f 52f
7:18 21 24 mph 1025.2mb 68f 52f
7:12 22 25 mph 1025.1mb 68f 52f
7:06 22 25 mph 1025mb 68f 52f
7:00 20 24 mph 1025mb 68f 52f
6:54 20 25 mph 1024.8mb 68f 52f
6:48 20 24 mph 1024.7mb 68f 52f
6:42 17 23 mph 1024.6mb 68f 52f
6:36 20 22 mph 1024.5mb 68f 52f
6:30 18 24 mph 1024.4mb 68f 53f
6:24 17 23 mph 1024.2mb 68f 53f
6:18 18 23 mph 1024mb 69f 53f
6:12 18 23 mph 1024mb 69f 53f
6:06 17 22 mph 1023.9mb 69f 53f
6:00 20 23 mph 1023.7mb 69f 53f
5:54 17 23 mph 1023.7mb 69f 53f
5:48 21 25 mph 1023.6mb 69f 53f
5:42 22 24 mph 1023.4mb 69f 53f
5:36 18 23 mph 1023.3mb 69f 53f
5:30 20 23 mph 1023.2mb 69f 53f
5:24 20 25 mph 1023.1mb 69f 54f
5:18 21 24 mph 1022.9mb 69f 54f
5:12 16 20 mph 1022.9mb 69f 54f
5:06 15 18 mph 1022.9mb 68f 54f
5:00 14 21 mph 1022.9mb 68f 54f
4:54 14 18 mph 1022.7mb 68f 54f
4:48 14 17 mph 1022.6mb 68f 54f
4:42 14 18 mph 1022.5mb 69f 54f
4:36 14 18 mph 1022.4mb 69f 54f
4:30 14 20 mph 1022.2mb 69f 55f
4:24 16 25 mph 1022.1mb 69f 55f
4:18 18 23 mph 1021.9mb 69f 55f
4:12 15 22 mph 1021.8mb 69f 55f
4:06 16 24 mph 1021.9mb 69f 55f
4:00 17 22 mph 1021.8mb 69f 56f
3:54 18 23 mph 1021.8mb 69f 56f
3:48 18 23 mph 1021.6mb 69f 56f
3:42 18 24 mph 1021.5mb 69f 56f
3:36 20 25 mph 1021.5mb 69f 56f
3:30 16 24 mph 1021.4mb 69f 56f
3:24 21 23 mph 1021.4mb 69f 56f
3:18 18 23 mph 1021.4mb 69f 56f
3:12 17 22 mph 1021.3mb 69f 56f
3:00 11 17 mph 1021.3mb 69f 56f
2:54 13 18 mph 1021.3mb 69f 57f
2:48 15 22 mph 1021.1mb 69f 57f
2:42 18 22 mph 1021mb 69f 57f
2:36 14 18 mph 1021mb 69f 57f
2:30 14 17 mph 1021mb 69f 57f
2:24 14 20 mph 1020.9mb 69f 57f
2:18 16 24 mph 1020.9mb 69f 57f
2:12 18 25 mph 1020.9mb 69f 58f
2:06 22 26 mph 1020.8mb 69f 58f
2:00 17 24 mph 1020.7mb 69f 58f
1:54 20 23 mph 1020.6mb 69f 58f
1:48 17 22 mph 1020.6mb 69f 58f
1:42 21 24 mph 1020.4mb 69f 58f
1:36 18 24 mph 1020.2mb 69f 59f
1:30 20 25 mph 1020.1mb 69f 59f
1:24 17 22 mph 1020.1mb 69f 59f
1:18 18 22 mph 1020mb 69f 60f
1:12 18 24 mph 1019.9mb 69f 60f
1:06 17 24 mph 1019.8mb 69f 61f
1:00 16 24 mph 1019.7mb 69f 60f
12:54 16 23 mph 1019.6mb 69f 61f
12:48 20 23 mph 1019.4mb 69f 61f
12:42 17 22 mph 1019.3mb 69f 61f
12:36 17 22 mph 1019.2mb 69f 61f
12:30 16 21 mph 1019.2mb 69f 62f
12:24 20 23 mph 1019mb 69f 62f
12:18 17 21 mph 1019mb 69f 63f
12:12 16 21 mph 1019mb 69f 63f
12:06 18 22 mph 1018.9mb 69f 64f
12:00 17 22 mph 1018.8mb 69f 64f
jue 09/18 11:54 17 21 mph 1018.7mb 69f 64f
11:48  -  mph 1018.7mb 69f 64f
11:42  -  mph 1018.6mb 69f 64f
11:36  -  mph 1018.5mb 69f 64f
11:30 17 22 mph 1018.4mb 69f 65f
11:24 17 21 mph 1018.3mb 69f 65f
11:18 17 21 mph 1018.3mb 69f 65f
11:12 17 22 mph 1018.2mb 69f 65f
11:06 14 18 mph 1018.2mb 69f 65f
11:00 17 22 mph 1018.1mb 69f 65f
10:54 14 18 mph 1018mb 69f 65f
10:48 11 17 mph 1018mb 69f 65f
10:42 14 21 mph 1017.9mb 69f 65f
10:36 14 20 mph 1017.8mb 69f 66f
10:30 13 16 mph 1017.6mb 69f -
10:24 14 22 mph 1017.5mb 69f -
10:18 13 20 mph 1017.5mb 69f 67f
10:12 16 18 mph 1017.4mb 69f 67f
10:06 13 16 mph 1017.4mb 69f 66f
10:00 9 11 mph 1017.3mb 69f 65f
9:54 8 10 mph 1017.3mb 69f 65f
9:48 8 13 mph 1017.2mb 69f 65f
9:42 8 11 mph 1017.1mb 69f 65f
9:36 7 9 mph 1016.9mb 69f 65f
9:30 6 8 mph 1016.9mb 69f 65f
9:24 7 8 mph 1016.8mb 69f 66f
9:18 6 8 mph 1016.7mb 69f 66f
9:12 7 9 mph 1016.6mb 69f 66f
9:06 7 8 mph 1016.6mb 69f 66f
9:00 7 8 mph 1016.5mb 70f 66f
8:54 6 9 mph 1016.5mb 70f 66f
8:48 7 8 mph 1016.4mb 70f 66f
8:42 6 8 mph 1016.3mb 70f 66f
8:36 7 8 mph 1016.3mb 70f 66f
8:30 7 8 mph 1016.2mb 70f 66f
8:24 6 8 mph 1016.1mb 70f 66f
8:18 7 8 mph 1016mb 70f 67f
8:12 7 8 mph 1016mb 70f 67f
8:06 7 8 mph 1015.9mb 70f 67f
8:00 7 8 mph 1015.8mb 70f 67f
7:54 7 8 mph 1015.7mb 70f 67f
7:48 6 7 mph 1015.6mb 70f 67f
7:42 6 7 mph 1015.5mb 70f 68f
7:36 6 8 mph 1015.4mb 70f 68f
7:30 7 9 mph 1015.4mb 70f 69f
7:24 6 8 mph 1015.4mb 70f 69f
7:18 6 8 mph 1015.3mb 70f 69f
7:12 7 9 mph 1015.2mb 70f 69f
7:06 8 10 mph 1015.2mb 70f 69f
7:00 7 9 mph 1015.1mb 70f 70f
6:54 7 9 mph 1015mb 70f 70f
6:48 7 11 mph 1014.9mb 70f 70f
6:42 10 14 mph 1014.8mb 70f 71f
6:36 8 14 mph 1014.8mb 70f 71f
6:30 7 9 mph 1014.8mb 70f 72f
6:24 7 10 mph 1014.7mb 70f 72f
6:18 8 10 mph 1014.7mb 70f 72f
6:12 7 11 mph 1014.7mb 70f 72f
6:06 6 8 mph 1014.6mb 70f 73f
6:00 5 7 mph 1014.6mb 70f 73f
5:54 3 6 mph 1014.5mb 70f 72f
5:48 3 7 mph 1014.5mb 70f 72f
5:42 8 10 mph 1014.4mb 70f 71f
5:36 6 7 mph 1014.3mb 70f 72f
5:30 3 9 mph 1014.3mb 70f 73f
5:24 7 8 mph 1014.2mb 70f 71f
5:18 8
mph
1014.2mb 70f 71f
5:00 5 7 mph 1014.1mb 69f 72f
4:54 6 8 mph 1014mb 69f 72f
4:48 6 7 mph 1013.9mb 69f 72f
4:42 6 7 mph 1013.8mb 69f 72f
4:36 3 7 mph 1013.8mb 69f 72f
4:30 6
mph
1013.8mb 69f 71f
4:24 5 6 mph 1013.8mb 69f 71f
4:18 2 3 mph 1013.7mb 69f 71f
4:12 2 3 mph 1013.7mb 69f 71f
4:06 1 3 mph 1013.7mb 69f 71f
3:54 3
mph
1013.8mb 69f 71f
3:48 3 5 mph 1013.8mb 69f 71f
3:42 3 7 mph 1013.7mb 69f 71f
3:36 3 5 mph 1013.8mb 69f 71f
3:30 5
mph
1013.8mb 69f 71f
3:24 5 6 mph 1013.8mb 69f 71f
3:18 5 6 mph 1013.8mb 69f 70f
3:12 6 7 mph 1013.7mb 69f 70f
3:06 6 7 mph 1013.7mb 69f 70f
3:00 6
mph
1013.7mb 69f 70f
2:54 3 8 mph 1013.7mb 69f 71f
2:48 6 7 mph 1013.7mb 69f 70f
2:42 6
mph
1013.7mb 69f 69f
2:36 6 8 mph 1013.7mb 69f 70f
2:30 6 7 mph 1013.6mb 69f 70f
2:24 6 7 mph 1013.7mb 69f 70f
2:18 6 8 mph 1013.7mb 69f 69f
2:12 7 8 mph 1013.7mb 69f 69f
2:06 6 10 mph 1013.7mb 69f 69f
2:00 3 6 mph 1013.8mb 69f 70f
1:54 5 10 mph 1013.8mb 69f 70f
1:48 6 7 mph 1013.9mb 69f 70f
1:42 7 8 mph 1013.9mb 69f 69f
1:36 7 8 mph 1013.9mb 69f 70f
1:30 7 9 mph 1013.9mb 69f 69f
1:24 9 11 mph 1014mb 69f 71f
1:18 6 11 mph 1014mb 69f 70f
1:12 9 13 mph 1014.1mb 69f 70f
1:06 2 8 mph 1014.2mb 69f 70f
1:00 3 9 mph 1014.2mb 69f 70f
12:54 2 6 mph 1014.3mb 69f 70f
12:48 2 7 mph 1014.3mb 69f 71f
12:42 7 11 mph 1014.3mb 69f 69f
12:36 8 13 mph 1014.3mb 69f 69f
12:30 8 11 mph 1014.2mb 69f 69f
12:24 7 11 mph 1014.2mb 69f 69f
12:12 2 13 mph 1014.3mb 69f 69f
12:06 7 11 mph 1014.2mb 69f 69f
12:00 6 10 mph 1014.3mb 69f 69f
11:54 7 8 mph 1014.3mb 69f 69f
11:48 6 10 mph 1014.4mb 69f 69f
11:42 6 13 mph 1014.3mb 69f 69f
11:36 6 11 mph 1014.3mb 69f 69f
11:30 8 11 mph 1014.3mb 69f 68f
11:24 8 13 mph 1014.4mb 69f 68f
11:18 6 13 mph 1014.4mb 69f 69f
11:12 7 10 mph 1014.4mb 69f 69f
11:06 7 10 mph 1014.4mb 69f 68f
11:00 7 9 mph 1014.4mb 69f 68f
10:54 7 13 mph 1014.4mb 69f 68f
10:48 7 11 mph 1014.4mb 69f 68f
10:42 7 13 mph 1014.5mb 69f 67f
10:36 8 11 mph 1014.5mb 69f 67f
10:30 7 11 mph 1014.6mb 69f 68f
10:24 9 15 mph 1014.7mb 69f 67f
10:18 11 14 mph 1014.7mb 69f 67f
10:12 9 14 mph 1014.8mb 69f 67f
10:06 3 5 mph 1014.8mb 69f 66f
10:00 2 3 mph 1014.9mb 69f 65f
9:54 2 3 mph 1014.9mb 69f 65f
9:48 2 3 mph 1015mb 69f 64f
9:42 2 5 mph 1015mb 69f 64f
9:36 2 5 mph 1015mb 69f 63f
9:30 3 5 mph 1015mb 69f 62f
9:24 2
mph
1015mb 69f 63f
9:18 2
mph
1015mb 69f 63f
9:12 2
mph
1015mb 69f 63f
9:06 1 2 mph 1014.9mb 69f 63f
9:00  -  1 mph 1015mb 69f 64f
8:54  -  1 mph 1014.9mb 69f 65f
8:48  -  2 mph 1015mb 69f 62f
8:42 1 2 mph 1015mb 69f 61f
8:36 1 3 mph 1014.9mb 69f 60f
8:30 2 3 mph 1014.9mb 69f 59f
8:24 2 3 mph 1014.9mb 69f 59f
8:18 2 3 mph 1014.9mb 69f 59f
8:12 2
mph
1014.9mb 69f 59f
8:06  -  2 mph 1014.8mb 69f 60f
8:00  -  1 mph 1014.8mb 69f 60f
7:54  -  1 mph 1014.7mb 69f 58f
7:48 1 2 mph 1014.7mb 69f 56f
7:42 2
mph
1014.6mb 69f 56f
7:36 2 3 mph 1014.6mb 69f 56f
7:30 2
mph
1014.6mb 69f 55f
7:24 2
mph
1014.6mb 69f 55f
7:18 2
mph
1014.5mb 69f 54f
7:12 2 3 mph 1014.5mb 69f 54f
7:06 2 3 mph 1014.4mb 69f 54f
7:00 2 3 mph 1014.3mb 69f 53f
6:54 3 5 mph 1014.2mb 69f 53f
6:48 3
mph
1014.2mb 69f 53f
6:42 3 5 mph 1014.1mb 69f 53f
6:36 3
mph
1014.1mb 69f 53f
6:30 2 3 mph 1014.1mb 69f 53f
6:24 2 3 mph 1014.1mb 69f 53f
6:18 2 3 mph 1014.1mb 69f 54f
6:12 2 3 mph 1014.1mb 69f 54f
6:06 2 5 mph 1014.1mb 69f 53f
6:00 3 5 mph 1014mb 69f 53f
5:54 3
mph
1014mb 69f 53f
5:48 2 5 mph 1014mb 69f 53f
5:42 2 3 mph 1014mb 69f 53f
5:36 3
mph
1014mb 69f 53f
5:30 2 3 mph 1014mb 69f 54f
5:24 2 3 mph 1014mb 69f 53f
5:18 3
mph
1013.9mb 69f 54f
5:12 2
mph
1013.9mb 69f 53f
5:06 2 5 mph 1013.9mb 69f 53f
5:00 3 5 mph 1013.9mb 69f 54f
4:54 3 5 mph 1013.9mb 69f 55f
4:48 2 3 mph 1013.8mb 69f 55f
4:42 2
mph
1013.8mb 69f 55f
4:36  -  5 mph 1013.8mb 69f 54f
4:30 2 5 mph 1013.7mb 69f 54f
4:24 1 5 mph 1013.6mb 69f 54f
4:18 2 3 mph 1013.6mb 69f 53f
4:12 3 5 mph 1013.6mb 69f 54f
4:06 3 5 mph 1013.6mb 69f 54f
4:00 3 5 mph 1013.5mb 69f 54f
3:54 3
mph
1013.5mb 69f 55f
3:48 3
mph
1013.5mb 69f 55f
3:42 3
mph
1013.5mb 69f 55f
3:36 2 3 mph 1013.4mb 69f 55f
3:30 3
mph
1013.4mb 69f 55f
3:24 2 3 mph 1013.4mb 69f 55f
3:18 3 5 mph 1013.3mb 69f 55f
3:12 3 5 mph 1013.3mb 69f 54f
3:06 3 5 mph 1013.3mb 69f 54f
3:00 2 3 mph 1013.4mb 69f 54f
2:54 2 3 mph 1013.5mb 69f 54f
2:48 2 3 mph 1013.5mb 69f 54f
2:42 2 5 mph 1013.5mb 69f 54f
2:36 2
mph
1013.5mb 69f 55f
2:30 2 3 mph 1013.5mb 69f 55f
2:24 3
mph
1013.6mb 69f 55f
2:18 2 5 mph 1013.6mb 69f 55f
2:12 3 5 mph 1013.6mb 69f 55f
2:06 1 2 mph 1013.6mb 69f 55f
2:00  -  1 mph 1013.7mb 69f 55f
1:54  -  2 mph 1013.8mb 69f 55f
1:48 2
mph
1013.9mb 69f 55f
1:42 2 5 mph 1014mb 69f 55f
1:36 2 5 mph 1014mb 69f 56f
1:30 5 6 mph 1014.1mb 69f 57f
1:24 5 6 mph 1014.1mb 69f 57f
1:18 6 7 mph 1014.1mb 69f 58f
1:12 6
mph
1014.1mb 69f 59f
1:06 5 6 mph 1014.1mb 69f 59f
1:00 5 6 mph 1014.1mb 69f 59f
12:54 5
mph
1014.1mb 69f 58f
12:48 3 5 mph 1014.1mb 69f 58f
12:42 1 2 mph 1014.2mb 69f 58f
12:36 1 2 mph 1014.2mb 69f 57f
12:30  -  1 mph 1014.3mb 69f 57f
12:24 1 3 mph 1014.4mb 69f 56f
12:18 2 3 mph 1014.4mb 69f 56f
12:12 2 3 mph 1014.4mb 69f 57f
12:06  -  2 mph 1014.4mb 69f 57f
12:00 2 3 mph 1014.5mb 69f 57f
mié 09/17 11:54 3 5 mph 1014.5mb 69f 57f
11:48 2 3 mph 1014.4mb 69f 58f
11:42 2 3 mph 1014.5mb 69f 58f
11:36 1 5 mph 1014.5mb 69f 58f
11:30 5 6 mph 1014.5mb 69f 58f
11:24 5 6 mph 1014.5mb 69f 58f
11:18 5
mph
1014.5mb 69f 58f
11:12 5
mph
1014.6mb 69f 59f
11:06 5
mph
1014.6mb 69f 59f
11:00 5 6 mph 1014.7mb 69f 59f
10:54 6
mph
1014.7mb 69f 59f
10:48 6 7 mph 1014.7mb 69f 59f
10:42 7
mph
1014.8mb 69f 59f
10:36 6 8 mph 1014.8mb 69f 59f
10:30 6 7 mph 1014.8mb 69f 59f
10:24 6 7 mph 1014.7mb 69f 59f
10:18 5 6 mph 1014.7mb 69f 60f
10:12 6 7 mph 1014.7mb 69f 60f
10:06 6 8 mph 1014.7mb 69f 61f
10:00 7 8 mph 1014.7mb 69f 61f
9:54 7 8 mph 1014.8mb 69f 60f
9:48 7 8 mph 1014.8mb 69f 60f
9:42 7 8 mph 1014.8mb 69f 60f
9:36 8 10 mph 1014.8mb 69f 60f
9:30 6 9 mph 1014.8mb 69f 60f
9:24 8 9 mph 1014.8mb 69f 60f
9:12 9 10 mph 1014.9mb 69f 60f
9:00 8 9 mph 1014.9mb 69f 61f
8:54 8 10 mph 1014.8mb 69f 61f
8:48 8 9 mph 1014.8mb 69f 61f
8:42 8 11 mph 1014.8mb 69f 62f
8:36 9 10 mph 1014.8mb 69f 62f
8:30 10 11 mph 1014.7mb 69f 62f
8:24 10 11 mph 1014.7mb 69f 62f
8:18 10 11 mph 1014.6mb 69f 62f
8:12 9 10 mph 1014.5mb 69f 63f
8:06 9 10 mph 1014.5mb 69f 63f
8:00 9 11 mph 1014.4mb 69f 63f
7:54 10 13 mph 1014.3mb 69f 63f
7:48 11 13 mph 1014.4mb 69f 64f
7:42 10 11 mph 1014.2mb 69f 64f
7:36 10 11 mph 1014.2mb 69f 64f
7:30 10 13 mph 1014.2mb 69f 64f
7:24 11 13 mph 1014.2mb 69f 64f
7:18 10 11 mph 1014.1mb 69f 64f
7:12 11 13 mph 1014.1mb 69f 65f
7:06 10 13 mph 1014.1mb 69f 65f
7:00 11 14 mph 1014mb 69f 65f
6:54 11 15 mph 1014mb 69f 65f
6:48 13 15 mph 1014mb 69f 65f
6:42 11 15 mph 1013.9mb 69f 66f
6:36 13 15 mph 1013.9mb 69f 66f
6:30 13 16 mph 1013.8mb 69f 66f
6:24 14 16 mph 1013.7mb 69f 67f
6:18 13 16 mph 1013.8mb 69f 67f
6:12 13 16 mph 1013.7mb 69f 67f
6:06 15 17 mph 1013.7mb 69f 67f
6:00 13 14 mph 1013.7mb 69f 67f
5:54 13 16 mph 1013.6mb 69f 68f
5:48 15 16 mph 1013.5mb 69f 68f
5:42 14 16 mph 1013.5mb 69f 68f
5:36 14 16 mph 1013.5mb 69f 68f
5:30 15 16 mph 1013.4mb 69f 68f
5:18 13 16 mph 1013.2mb 70f 68f
5:12 14 16 mph 1013.3mb 70f 68f
5:06 14 15 mph 1013.2mb 70f 68f
5:00 11 14 mph 1013.2mb 70f 68f
4:54 13 14 mph 1013.2mb 70f 68f
4:48 14 15 mph 1013.2mb 70f 68f
4:42 15 18 mph 1013.2mb 70f 67f
4:36 15 20 mph 1013.2mb 70f 67f
4:30 16 18 mph 1013.3mb 69f 67f
4:24 15 18 mph 1013.3mb 69f 67f
4:18 15 20 mph 1013.4mb 69f 67f
4:12 17 20 mph 1013.4mb 69f 67f
4:06 16 18 mph 1013.4mb 69f 67f
4:00 17 18 mph 1013.4mb 69f 67f
3:54 17 20 mph 1013.4mb 70f 67f
3:48 15 17 mph 1013.5mb 70f 67f
3:42 16 18 mph 1013.6mb 70f 67f
3:36 16 17 mph 1013.7mb 70f 67f
3:30 16 18 mph 1013.7mb 70f 67f
3:24 16 18 mph 1013.8mb 70f 67f
3:18 17 20 mph 1013.8mb 70f 67f
3:12 16 20 mph 1013.9mb 70f 67f
3:06 17 18 mph 1014mb 70f 66f
3:00 16 20 mph 1014mb 70f 66f
2:54 17 18 mph 1014mb 70f 66f
2:48 16 18 mph 1013.9mb 70f 66f
2:42 16 17 mph 1013.9mb 70f 66f
2:36 15 17 mph 1013.9mb 70f 66f
2:30 15 16 mph 1013.9mb 70f 66f
2:24 15 17 mph 1014mb 70f 65f
2:12 16 17 mph 1014mb 70f 65f
2:06 15 16 mph 1014.1mb 70f 65f
2:00 14 16 mph 1014.1mb 69f 65f
1:54 13 14 mph 1014.2mb 69f 65f
1:48 13 15 mph 1014.3mb 69f 65f
1:42 14 16 mph 1014.3mb 69f 65f
1:36 11 13 mph 1014.4mb 69f 66f
1:30 9 11 mph 1014.5mb 69f 66f
1:24 7 8 mph 1014.6mb 69f 66f
1:18 7 8 mph 1014.7mb 69f 66f
1:12 6 7 mph 1014.8mb 69f 66f
1:06 6 8 mph 1014.8mb 69f 66f
1:00 7
mph
1014.9mb 69f 65f
12:54 6 7 mph 1014.9mb 69f 65f
12:48 6 7 mph 1014.9mb 69f 65f
12:42 7
mph
1015mb 69f 65f
12:36 6 7 mph 1015.1mb 69f 65f
12:30 6 7 mph 1015.2mb 69f 65f
12:24 6 7 mph 1015.3mb 69f 65f
12:18 7 8 mph 1015.3mb 69f 64f
12:12 6 7 mph 1015.3mb 69f 64f
12:06 7
mph
1015.4mb 69f 64f
12:00 6 7 mph 1015.5mb 69f 64f
11:54 6 7 mph 1015.6mb 69f 64f
11:48 5 7 mph 1015.6mb 69f 64f
11:42 6 7 mph 1015.7mb 69f 64f
11:36 5 7 mph 1015.7mb 69f 64f
11:30 6 7 mph 1015.8mb 69f 64f
11:24 6 7 mph 1015.9mb 69f 64f
11:18 6 7 mph 1015.9mb 69f 64f
11:12 6 7 mph 1015.9mb 69f 63f
11:06 6 7 mph 1016mb 69f 63f
11:00 7 8 mph 1016.1mb 69f 63f
10:54 7 8 mph 1016.1mb 69f 63f
10:48 7 8 mph 1016mb 69f 63f
10:42 7 8 mph 1016mb 69f 63f
10:36 7 8 mph 1016mb 69f 63f
10:30 7 9 mph 1016mb 69f 63f
10:24 7 10 mph 1016.1mb 69f 63f
10:18 7 8 mph 1016.1mb 69f 63f
10:12 6 8 mph 1016.1mb 69f 63f
10:06 7 9 mph 1016.2mb 69f 62f
10:00 7 9 mph 1016.2mb 69f 62f
9:54 6 8 mph 1016.2mb 69f 62f
9:48 6
mph
1016.2mb 69f 61f
9:42 5 7 mph 1016.2mb 69f 61f
9:36 5 6 mph 1016.2mb 69f 61f
9:30 3 5 mph 1016.2mb 69f 61f
9:24 1 3 mph 1016.3mb 69f 61f
9:18 2 3 mph 1016.3mb 69f 60f
9:12 2 3 mph 1016.3mb 69f 61f
9:06 1 3 mph 1016.3mb 69f 61f
9:00  -  1 mph 1016.3mb 69f 62f
8:54 1 3 mph 1016.3mb 69f 61f
8:48 1 3 mph 1016.3mb 69f 60f
8:42  -  2 mph 1016.3mb 69f 61f
8:36 1 2 mph 1016.3mb 69f 60f
8:30  -  1 mph 1016.4mb 69f 60f
8:24 1 2 mph 1016.4mb 69f 60f
8:12 3 5 mph 1016.3mb 69f 57f
8:00 3 5 mph 1016.2mb 69f 57f
7:54 2 3 mph 1016.2mb 69f 57f
7:48 1 2 mph 1016.2mb 69f 57f
7:42 2
mph
1016.2mb 69f 57f
7:36 2 3 mph 1016.2mb 69f 56f
7:30 2 5 mph 1016.2mb 69f 55f
7:24 2 5 mph 1016.2mb 69f 55f
7:18 1 5 mph 1016.2mb 69f 55f
7:12 5 6 mph 1016.2mb 69f 55f
7:06 3 5 mph 1016.1mb 69f 55f
7:00 2 3 mph 1016mb 69f 55f
6:54 1 3 mph 1016mb 69f 55f
6:48 2 3 mph 1016mb 69f 54f
6:42 3 5 mph 1016mb 69f 54f
6:36 3 5 mph 1016mb 69f 53f
6:30 2 5 mph 1015.9mb 69f 54f
6:24 2 5 mph 1015.9mb 69f 53f
6:18 2 5 mph 1015.9mb 69f 53f
6:12 3 5 mph 1015.7mb 69f 53f
6:00 1 3 mph 1015.5mb 69f 54f
5:54 2 3 mph 1015.6mb 69f 54f
5:48 3 5 mph 1015.5mb 69f 54f
5:42 3 6 mph 1015.5mb 69f 54f
5:36 5
mph
1015.4mb 69f 54f
5:30 5 6 mph 1015.3mb 69f 55f
5:24 5 6 mph 1015.3mb 69f 55f
5:18 3 6 mph 1015.4mb 69f 55f
5:12 3 5 mph 1015.3mb 69f 55f
5:06 2 5 mph 1015.3mb 69f 55f
5:00 3 7 mph 1015.2mb 69f 55f
4:54 5 8 mph 1015.2mb 69f 55f
4:48 6 8 mph 1015.1mb 69f 55f
4:42 6 8 mph 1015.1mb 69f 55f
4:36 6 8 mph 1015.1mb 69f 55f
4:30 7 9 mph 1015.1mb 69f 55f
4:24 7 8 mph 1015mb 69f 55f
4:18 7 10 mph 1015mb 69f 56f
4:12 7 9 mph 1015mb 69f 55f
4:06 7 10 mph 1015mb 69f 56f
4:00 7 10 mph 1015.1mb 69f 56f
3:54 6 8 mph 1015.1mb 69f 55f
3:48 6
mph
1015.1mb 69f 55f
3:42 6
mph
1015.1mb 69f 55f
3:36 5 6 mph 1015.1mb 69f 55f
3:30 5
mph
1015.1mb 69f 55f
3:24 5
mph
1015.1mb 69f 55f
3:18 5
mph
1015.1mb 69f 56f
3:12 3
mph
1015.2mb 69f 56f
3:06 2 5 mph 1015.2mb 69f 56f
3:00 3
mph
1015.2mb 69f 56f
2:54 2 5 mph 1015.2mb 69f 57f
2:48 1 3 mph 1015.2mb 69f 56f
2:42 3 6 mph 1015.2mb 69f 56f
2:36 3 6 mph 1015.2mb 69f 57f
2:30 6
mph
1015.2mb 69f 58f
2:24 5 6 mph 1015.2mb 69f 58f
2:18 3 5 mph 1015.1mb 69f 58f
2:12 3 5 mph 1015.2mb 69f 58f
2:06 3
mph
1015.1mb 69f 58f
2:00 3 5 mph 1015.1mb 69f 58f
1:54 3 5 mph 1015.1mb 69f 58f
1:48 3 5 mph 1015.2mb 69f 59f
1:42 3 5 mph 1015.2mb 69f 59f
1:36 3 5 mph 1015.3mb 69f 59f
1:30 3 5 mph 1015.3mb 69f 59f
1:24 5 6 mph 1015.3mb 69f 59f
1:18 5
mph
1015.4mb 69f 60f
1:12 3 5 mph 1015.3mb 69f 60f
1:06 5
mph
1015.2mb 69f 60f
1:00 3 5 mph 1015.3mb 69f 60f
12:54 3 5 mph 1015.3mb 69f 60f
12:48 5 6 mph 1015.3mb 69f 59f
12:42 5 7 mph 1015.2mb 69f 60f
12:36 7 9 mph 1015.2mb 69f 60f
12:30 7 8 mph 1015.2mb 69f 60f
12:24 6 7 mph 1015.3mb 69f 60f
12:18 6 7 mph 1015.3mb 69f 60f
12:12 6 7 mph 1015.3mb 69f 60f
12:06 6 7 mph 1015.3mb 69f 60f
12:00 5 6 mph 1015.3mb 69f 60f
mar 09/16 11:54 5 6 mph 1015.3mb 69f 60f
11:48 5 6 mph 1015.3mb 69f 60f
11:42 5 6 mph 1015.3mb 69f 60f
11:36 6 7 mph 1015.3mb 69f 60f
11:30 6 8 mph 1015.2mb 69f 60f
11:24 6 7 mph 1015.1mb 69f 60f
11:18 6 7 mph 1015.1mb 69f 60f
11:12 6 7 mph 1015mb 69f 60f
11:06 6 7 mph 1015mb 69f 61f
11:00 6 7 mph 1014.9mb 69f 60f
10:54 6 7 mph 1015mb 69f 61f
10:48 6 8 mph 1015mb 69f 61f
10:42 7 9 mph 1015mb 69f 61f
10:30 7 8 mph 1015mb 69f 61f
10:18 7 9 mph 1015mb 69f 62f
10:12 7
mph
1015mb 69f 62f
10:06 5
mph
1014.9mb 69f 63f
10:00 5 7 mph 1014.9mb 69f 62f
9:54 5 6 mph 1014.9mb 69f 63f
9:48 6 7 mph 1014.9mb 69f 63f
9:42 3 5 mph 1014.9mb 69f 63f
9:36 3 5 mph 1014.8mb 69f 62f
9:30 3 5 mph 1014.8mb 69f 63f
9:24 5 6 mph 1014.8mb 69f 63f
9:18 6
mph
1014.8mb 69f 63f
9:12 5 7 mph 1014.8mb 69f 63f
9:06 6
mph
1014.8mb 69f 63f
9:00 5 6 mph 1014.8mb 69f 63f
8:54 5 6 mph 1014.9mb 69f 63f
8:48 6 7 mph 1014.9mb 69f 63f
8:42 6
mph
1014.9mb 69f 63f
8:36 3 5 mph 1014.9mb 69f 63f
8:30 5 7 mph 1014.8mb 69f 63f
8:24 6 7 mph 1014.8mb 69f 63f
8:18 6
mph
1014.8mb 69f 63f
8:12 5 6 mph 1014.8mb 69f 63f
8:06 6 7 mph 1014.8mb 69f 63f
8:00 6 7 mph 1014.7mb 69f 64f
7:54 6 7 mph 1014.6mb 69f 64f
7:48 5 7 mph 1014.5mb 69f 64f
7:42 5 7 mph 1014.4mb 69f 64f
7:36 5 7 mph 1014.4mb 69f 64f
7:30 5 6 mph 1014.3mb 69f 64f
7:24 5 6 mph 1014.3mb 69f 64f
7:18 5 6 mph 1014.3mb 69f 64f
7:12 5 6 mph 1014.2mb 69f 64f
7:06 5 7 mph 1014.2mb 69f 64f
7:00 5 6 mph 1014.2mb 69f 64f
6:54 6
mph
1014.2mb 69f 64f
6:48 3 7 mph 1014.1mb 69f 64f
6:42 6 8 mph 1014.1mb 69f 64f
6:36 8 9 mph 1014.1mb 69f 64f
6:30 8 10 mph 1014.1mb 69f 64f
6:24 8 10 mph 1014.1mb 69f 64f
6:18 10 13 mph 1014.1mb 69f 64f
6:12 10 11 mph 1014.1mb 69f 65f
6:06 10 13 mph 1014.1mb 69f 65f
6:00 10 11 mph 1014.2mb 69f 65f
5:54 10 11 mph 1014.2mb 69f 65f
5:48 10 11 mph 1014.2mb 69f 65f
5:42 9 13 mph 1014.2mb 69f 65f
5:36 8 11 mph 1014.2mb 69f 65f
5:30 7 10 mph 1014.1mb 69f 65f
5:24 8 9 mph 1014.1mb 69f 65f
5:18 7 10 mph 1014mb 69f 65f
5:12 9 11 mph 1014mb 69f 65f
5:06 11 13 mph 1014mb 69f 65f
5:00 9 14 mph 1014mb 69f 65f
4:54 11 13 mph 1014mb 69f 65f
4:48 11 14 mph 1013.9mb 69f 65f
4:42 11 15 mph 1013.9mb 69f 65f
4:36 11 14 mph 1013.9mb 69f 66f
4:30 11 14 mph 1013.9mb 69f 66f
4:24 10 13 mph 1013.9mb 69f 66f
4:18 10 14 mph 1013.9mb 69f 66f
4:12 9 11 mph 1013.9mb 69f 66f
4:06 9 13 mph 1013.9mb 69f 66f
4:00 10 14 mph 1013.8mb 69f 67f
3:54 13 15 mph 1013.7mb 69f 66f
3:48 13 15 mph 1013.7mb 69f 67f
3:42 9 13 mph 1013.7mb 69f 67f
3:36 13 14 mph 1013.7mb 69f 67f
3:30 13 15 mph 1013.7mb 69f 66f
3:24 13 14 mph 1013.7mb 69f 67f
3:18 11 13 mph 1013.8mb 69f 67f
3:12 10 14 mph 1013.8mb 69f 66f
3:06 11 15 mph 1013.8mb 69f 66f
3:00 13 16 mph 1013.8mb 69f 66f
2:54 11 13 mph 1013.9mb 69f 65f
2:48 11 13 mph 1013.9mb 69f 65f
2:42 11 13 mph 1013.9mb 69f 65f
2:36 11 13 mph 1014mb 69f 65f
2:30 11 13 mph 1014mb 69f 65f
2:24 10 13 mph 1014.1mb 69f 66f
2:18 10 11 mph 1014.1mb 69f 65f
2:12 9 11 mph 1014.1mb 69f 65f
2:06 11 13 mph 1014.1mb 69f 66f
2:00 10 13 mph 1014.2mb 69f 66f
1:54 10 13 mph 1014.2mb 69f 66f
1:48 11 14 mph 1014.3mb 69f 65f
1:42 14 16 mph 1014.2mb 69f 65f
1:36 14 15 mph 1014.1mb 69f 65f
1:30 13 14 mph 1014.2mb 69f 65f
1:24 11 13 mph 1014.3mb 69f 65f
1:18 10 13 mph 1014.4mb 69f 65f
1:12 10 13 mph 1014.5mb 69f 65f
1:06 10 11 mph 1014.5mb 69f 65f
1:00 10 11 mph 1014.6mb 69f 65f
11:54 8 10 mph 1015.5mb 69f 65f
11:48 8 10 mph 1015.5mb 69f 65f
11:42 8 9 mph 1015.5mb - 65f
11:36 8 9 mph 1015.5mb - 65f
11:30 8 9 mph 1015.5mb 69f 65f
11:24 6 7 mph 1015.5mb 69f 65f
11:18 7 9 mph 1015.5mb 69f 65f
11:12 8 10 mph 1015.6mb 69f 65f
11:06 6 8 mph 1015.6mb 69f 65f
11:00 6 7 mph 1015.7mb 69f 65f
10:54 6 9 mph 1015.8mb 69f 65f
10:48 6 8 mph 1015.8mb 69f 65f
10:42 6 8 mph 1015.8mb 69f 66f
10:30 3 6 mph 1015.9mb - -
10:24  -  mph - 69f -
10:12  -  mph 1016mb - -
9:54  -  mph 1016.1mb - -
9:48  -  mph - - 65f
9:42  -  mph - - 65f
9:36  -  mph - - 65f
9:30  -  mph - - 64f
9:24  -  mph - - 64f
9:18  -  mph - - 63f
9:12  -  mph - - 64f
9:06  -  mph - - 63f
9:00 2
mph
- - 62f
8:54  -  2 mph - - 62f
8:48 1 2 mph 1016.3mb - 62f
8:42 2 3 mph 1016.1mb - 62f
8:36 2
mph
1016mb - 62f
8:30 2
mph
- - 61f
8:24 2 3 mph - - 60f
8:18 2
mph
1016.2mb - 60f
8:12 2
mph
1016.3mb - 60f
8:06 2
mph
1016.4mb - 59f
8:00 2
mph
1016.5mb 69f 59f
7:54 2 3 mph 1016.6mb 69f 59f
7:48 2
mph
1016.7mb 69f 58f
7:42 2
mph
1016.7mb 69f 58f
7:36 2
mph
1016.7mb 69f 58f
7:30  -  mph 1016.7mb 69f 58f
7:24  -  mph 1016.7mb 69f 58f
7:18 1
mph
1016.7mb 69f 58f
7:12 1
mph
1016.8mb 69f 57f
7:06 1 2 mph 1016.9mb 69f 58f
7:00 1 2 mph 1017mb 69f 58f
6:54  -  1 mph 1017mb 69f 58f
6:48  -  1 mph 1017.1mb 69f 58f
6:42 1 2 mph 1017.1mb 69f 57f
6:36 2
mph
1017.1mb 69f 57f
6:30 2
mph
- 69f 57f
6:24 2
mph
- 69f 57f
6:18 2
mph
1017mb 69f 57f
6:12 2
mph
1017mb 69f 57f
6:06 2
mph
1017mb 69f 57f
6:00 1 2 mph 1017mb 69f 57f
5:54  -  1 mph 1017.1mb 69f 57f
5:48  -  1 mph 1017.1mb 69f 56f
5:42 1 2 mph 1017.1mb 69f 56f
5:36 2
mph
1017.2mb 69f 56f
5:30 3 5 mph 1017.2mb 69f 55f
5:24 3 5 mph 1017.3mb 69f 56f
5:18 5
mph
1017.3mb 69f 55f
5:12 3 5 mph 1017.3mb 69f 55f
5:06 3 5 mph 1017.1mb 69f 55f
5:00 3 5 mph 1017.2mb 69f 55f
4:54 3 6 mph 1017.1mb 69f 55f
4:48 3 5 mph 1017.1mb 69f 55f
4:42 3
mph
1017.1mb 69f 55f
4:36 2 3 mph 1016.9mb 69f 55f
4:30 3 5 mph 1017mb 69f 55f
4:24 3 5 mph 1017mb 69f 55f
4:18 2 3 mph 1017mb 69f 55f
4:12 2 3 mph 1017mb 69f 56f
4:06 1 2 mph 1016.9mb 69f 56f
4:00 1 2 mph 1017mb 69f 55f
3:54 1 2 mph 1017.1mb 69f 56f
3:48 1 2 mph 1017.2mb 69f 55f
3:42 1 3 mph 1017.2mb 69f 55f
3:36 2 3 mph 1017.3mb 69f 55f
3:30 3
mph
1017.3mb 69f 55f
3:24 3
mph
1017.3mb 69f 55f
3:18  -  mph 1017.4mb - -
3:12 3 5 mph 1017.4mb - 55f
3:06 3
mph
1017.5mb - 55f
3:00 2
mph
1017.6mb - 55f
2:54  -  mph 1017.6mb - 55f
2:48 2 3 mph 1017.7mb - 55f
2:42  -  mph - - 55f
2:30  -  mph - - 55f
2:24  -  mph - - 55f
2:18  -  mph - - 55f
2:12  -  mph - - 55f
2:06  -  mph - - 55f
2:00  -  mph - - 55f
1:54  -  mph - - 55f
1:48  -  mph - 69f 55f
1:42  -  mph - 69f 55f
1:36  -  mph - 69f 55f
1:30  -  mph 1018.4mb 69f 55f
1:24 6
mph
1018.5mb 69f 55f
1:18  -  mph 1018.5mb 69f 55f
1:12 5 6 mph 1018.5mb 69f 55f
1:06 5 6 mph 1018.6mb 69f 55f
1:00  -  mph 1018.6mb 69f -
12:48  -  mph 1018.7mb 69f 56f
12:42 5 6 mph 1018.6mb 69f 56f
12:36 5 7 mph 1018.6mb 69f 56f
12:30  -  mph - 69f -
12:24  -  mph - 69f -
12:18  -  mph - - 56f
12:12  -  mph - - 56f
12:06  -  mph - - 56f
12:00  -  mph 1018.5mb - -
lun 09/15 11:54  -  mph 1018.7mb - -
11:48  -  mph 1018.8mb - -
11:42  -  mph 1018.8mb - 58f
11:36  -  mph 1018.6mb - 59f
11:30 5 6 mph 1018.6mb - 58f
11:24 5 6 mph 1018.6mb - 58f
11:18  -  mph 1018.6mb 69f 57f
11:12  -  mph 1018.7mb 69f 57f
11:06  -  mph 1018.8mb 69f 58f
11:00 7 8 mph - - 58f
10:54 1 3 mph - - 58f
10:48  -  mph 1018.7mb - -
10:42  -  mph 1018.9mb - -
10:36  -  mph 1019.1mb - -
10:30  -  mph - 69f 58f
10:24  -  mph - 69f 58f
10:18 3 5 mph - 69f 58f
10:12 3
mph
- 69f 58f
10:06 2 3 mph - 69f 58f
10:00 1 3 mph 1019.2mb 69f 59f
9:54 3 7 mph 1019.3mb 69f 59f
9:48 6 8 mph 1019.4mb 69f 59f
9:42 5 6 mph 1019.4mb 69f 59f
9:36 5 7 mph 1019.4mb 69f 60f
9:30 6 7 mph 1019.3mb 69f 60f
9:24 6 7 mph 1019.4mb 69f 60f
9:18 7 8 mph 1019.5mb 70f 60f
9:12 7 8 mph 1019.5mb 70f 60f
9:06 7 9 mph 1019.6mb 70f 60f
9:00 7 9 mph 1019.6mb 70f 60f
8:54 8 9 mph 1019.6mb 70f 61f
8:48 8 9 mph 1019.7mb 70f 60f
8:42 9 10 mph 1019.7mb 70f 60f
8:36 9 10 mph 1019.8mb 70f 61f
8:30 9 10 mph 1019.6mb 70f 61f
8:24 9 10 mph 1019.5mb 70f 61f
8:18 9 10 mph 1019.6mb 70f 61f
8:12 8 10 mph 1019.6mb 70f 61f
8:06 9 11 mph 1019.6mb 70f 62f
8:00 9 10 mph 1019.5mb 70f 62f
7:54 9 10 mph 1019.3mb 70f 62f
7:48 8 10 mph 1019.3mb 70f 63f
7:42 8 10 mph 1019.2mb 70f 63f
7:36 7 9 mph 1019.5mb 70f 63f
7:30 7 10 mph 1019.7mb 70f 63f
7:24 9 13 mph 1019.6mb 70f 63f
7:18 9 13 mph 1019.5mb 69f 64f
7:12 10 13 mph 1019.4mb 69f 64f
7:06 13 14 mph 1019.3mb 69f 64f
7:00 10 13 mph 1019.2mb 69f 64f
6:54 13
mph
1018.9mb 69f 64f
6:48 10 13 mph 1019.1mb 70f 64f
6:42 10 13 mph 1019.2mb 70f 64f
6:36 11 13 mph 1019.2mb 70f 64f
6:30 10 14 mph 1019.2mb 70f 64f
6:24 9 11 mph 1019.3mb 70f 64f
6:18 9 13 mph 1019.5mb 70f 64f
6:12 9 11 mph 1019.5mb 70f 64f
6:06 9 11 mph 1019.8mb 70f 64f
6:00 11 18 mph 1019.7mb 70f 64f
5:54 13 18 mph 1019.7mb 70f 64f
5:48 10 14 mph 1019.7mb 70f 64f
5:42 11 14 mph 1019.7mb 70f 64f
5:36 11 14 mph 1019.6mb 70f 64f
5:30 13 15 mph 1019.6mb 70f 64f
5:24 14 15 mph 1019.5mb 70f 64f
5:18 11 15 mph 1019.5mb 70f 64f